"Pseudo-MPEC" for 3JG1321

Created 2023 Sep 20 10:22:03 UT using Find_Orb

Click here for an explanation of pseudo-MPECs

 
 Astrometry: 
     3JG1321*KC2023 09 17A_YOIZW_MiJQS3[SW7Q1CykkY#)':QSdQxc;LR@W_S880)ivyfOEW94
     3JG1321 KC2023 09 171/Hnj=ElJcwMb`Bh8bEwo75Z@X0sD_0HA$8^J^.g\5Ov2=5tfDSVW94
     3JG1321 KC2023 09 17$M4hG3M?CP`GhxK'a9=vB9b:N]Vo[dK97_'8LTXo^rq'qB.25Kb2W94
     3JG1321 KC2023 09 17dKLmb\bCFg\8=PSKb0[s7,pEr+pZ=4+C[mCj07CIDo1F%Ft,j;$uX10
     3JG1321 KC2023 09 17e9myD6[lpX\QCcI4,rXU^XZ^RPEBk#r0?0a/ESZWi1RZh9-HEY))X10
     3JG1321 KC2023 09 17e3(bY,4iHSScbRv0`-d8hS+O-Tt@Astrometry7W,$`n]l\':5Z$X10
     3JG1321 KC2023 09 17Q3tNwZ5redacted;aMWn2,@v1^(6xPMj2T^!i-k5S%J:,(c?4?9oX10
     3JG1321 KC2023 09 17;K-x;+NhO;wgf*#BO8uTciak,ZYKsNAx5?9@G\Ib37YSu6uJOJ$8X10
     3JG1321 KC2023 09 17m?]yp%MyFK4??/gUX)hoAjSp:(@st381g8'memjog/$Td\7R,TMPX10
     3JG1321 KC2023 09 17-CEic=Q0NrH/?gj3X_gc.,yE8_Sf6`/[)MSFXctPf^pSN]e37-PEE23
     3JG1321 KC2023 09 179)D+iRqYl[nv.!Bfdq*/f^]I#J`0_#]^/L6_(;S$IT!isL`#[L;rE23
     3JG1321 KC2023 09 17P?BjOvPSYh`$vE`8Sclick?;at_ZFE^[KSSUrOFKvU*KDBGj\9w!E23
     3JG1321 0B2023 09 17U^u:?u9W0d0=@)lf+=:4?F0fjlgH5COEshV),@G#9F.1bgvAg`bXM49
     3JG1321 0B2023 09 17SBy!W%x,$qN4UZUV;XIaAZJChere!?i;[Gn#I4ZGt^sHsN\N*w,SM49
     3JG1321 0B2023 09 17_'hc%i=x2XYY64OJnwDRpF%x\-\Zn5suW\!Sx321G8G5hK)?I5ioM49
     3JG1321 KC2023 09 18;gRHIf8_lJulKNk8:9-$NO)WnSm7b$T0Mt'eYs5.?:70-Qg8EOgNX10
     3JG1321 KC2023 09 18`5'-L*o*8ZW3;wFhf/-[Frhw9Bj^q1f2Gn?MRiXD#i1@2`-Amhg?X10
     3JG1321 KC2023 09 180XR.p$@]jA+cH7RZ[/$G'DYg+[MAT]_3jH]Hh@8cK!e.FR=JyEHXX10
     3JG1321 KC2023 09 182T2G'SV?8ic`L1(G#ELX1ifWA^[@))Ro7dq?qM^/pGJv2,C5Rpm=E94
     3JG1321 KC2023 09 1894NZL/T/l`$*$O#uVa^Lb.ItoFc!p0/xlCJUQY!7^_;gb6D#uJ?]E94
     3JG1321 KC2023 09 18s9,tV-jg%eqwfor6Oo(f-g\O*Lsa!C'_qtEkQS[rX5]*3M0wl(^4E94
     3JG1321 0B2023 09 183k,Yl*`+![+Ff^[^pquT^#e1\^E!L=FXwl]R=r]=^uyvkprFTOe.M49
     3JG1321 0B2023 09 18OvjgBk9_kL6^ht6`lM#+H'9rS9(X41U%yQJljp'TaUDG!KJ,s'hfM49
     3JG1321 0B2023 09 18SAZZ$8H5G'explanationhx,[CS$0:Y.;ZYfARm/rF*RZ.E]Dld2M49
     3JG1321 KC2023 09 20EJGhL!F\oYD19#Q4/DC\D(4Y6Y4ZGK+HmWI9n?rl*ep[YYw;#%*6X10
     3JG1321 KC2023 09 20p=,*CgQnrTa)#TQvLDln;lMtCCR#Mhsju#h/\hcxq@,#q3GQ%omKX10
     3JG1321 KC2023 09 20Bgn??KlbD77YSeouNmlHTI?gpqled=bQe'K7Ng5?XkReVG`*o,-IX10

Station data:
(E23) Arcadia  (S33.621197 E151.071190)  Australia/NSW.  Observer A. Hidas.
   0.35-m f/1.9 reflector + CCD.
(E94) Gisborne (Possum Observatory)  (S38.629920 E177.883310)  New Zealand.
   Observer J. Drummond. 0.41-m f/4.5 Newtonian reflector + CCD.
(M49) IAS Remote Observatory, Hakos  (S23.236549 E16.361720)  Namibia.
   Observers D. Husar, M. Junius. Measurer D. Husar. 0.25-m f/4.6 reflector +
   CCD.
(W94) AMACS1, San Pedro de Atacama  (S22.953074 W68.179810)  Chile.  Observers
   A. Maury, G. Attard. Measurers A. Maury, G. Attard, D. Parrott. 0.28-m
   f/2.2 Schmidt + CCD.
(X10) OVTLN, San Pedro de Atacama  (S22.953331 W68.179600)  Chile.  Observers
   A. Maury, G. Attard, F. Signoret. Measurers A. Maury, G. Attard, D.
   Parrott. 0.50-m f/4  reflector + CCD.

Orbital elements:  3JG1321
   Perihelion 2023 Sep 20.80314 +/- 0.0229 TT = 19:16:31 (JD 2460208.30314)
Epoch 2023 Sep 20.0 TT = JDT 2460207.5   Earth MOID: 0.1175      AutoNEOCP
M 359.69576019 +/- 0.009            (J2000 ecliptic)
n   0.37881307 +/- 0.00205          Peri.  322.99853 +/- 0.050
a   1.89170207 +/- 0.00682          Node    33.67178 +/- 0.026
e   0.4191899 +/- 0.00189           Incl.    7.00288 +/- 0.023
P   2.60/950.32d           H 22.68  G  0.15   U  8.6
q 1.09871953 +/- 0.000379    Q 2.68468460 +/- 0.0133
From 27 observations 2023 Sept. 17-20; mean residual 0".27
Residuals in arcseconds: 
230917 W94  .21-  .60+    230917 E23  .22-  .13-    230918 E94  .07-  .07+    
230917 W94  .20+  .18+    230917 E23  .03-  .31+    230918 E94  .61+  .55-    
230917 W94  .25+  .18+    230917 E23  .27+  .29-    230918 E94  .18+  .04+    
230917 X10  .03+  .15-    230917 M49  .40-  .35+    230918 M49  .21+  .06-    
230917 X10  .29-  .19-    230917 M49  .41+  .33-    230918 M49  .39-  .15-    
230917 X10  .47-  .42-    230917 M49  .19-  .11-    230918 M49  .14-  .45+    
230917 X10  .14-  .02-    230918 X10  .06+  .17+    230920 X10  .13-  .10-    
230917 X10  .18-  .37-    230918 X10  .12-  .21+    230920 X10  .28+  .10-    
230917 X10  .08+  .19-    230918 X10  .34+  .05-    230920 X10  .34-  .26+    

Ephemerides (geocentric):
Date (UTC) HH   RA             Dec           delta  r     elong  mag " sig PA
---- --------  ------------   ------------  ------ ------ -----  --- --------
2023 09 20 10  00 52 04.166   -40 30 59.24  .12248 1.0987 138.2 19.8 .153 166
2023 09 20 11  00 52 11.387   -40 27 55.10  .12244 1.0987 138.2 19.8 .160 167
2023 09 20 12  00 52 18.596   -40 24 50.68  .12240 1.0987 138.2 19.8 .166 167
2023 09 20 13  00 52 25.795   -40 21 45.98  .12236 1.0987 138.3 19.8 .172 167
2023 09 20 14  00 52 32.984   -40 18 40.99  .12232 1.0987 138.3 19.8 .179 168
2023 09 20 15  00 52 40.162   -40 15 35.73  .12227 1.0987 138.3 19.8 .186 168
2023 09 20 16  00 52 47.329   -40 12 30.19  .12223 1.0987 138.4 19.8 .193 169
2023 09 20 17  00 52 54.486   -40 09 24.37  .12219 1.0987 138.4 19.8 .200 169
2023 09 20 18  00 53 01.632   -40 06 18.27  .12215 1.0987 138.4 19.8 .208 169
2023 09 20 19  00 53 08.767   -40 03 11.88  .12211 1.0987 138.5 19.8 .215 170
2023 09 20 20  00 53 15.892   -40 00 05.22  .12207 1.0987 138.5 19.8 .223 170
2023 09 20 21  00 53 23.006   -39 56 58.29  .12203 1.0987 138.5 19.8 .231 170
2023 09 20 22  00 53 30.110   -39 53 51.07  .12199 1.0987 138.6 19.8 .239 171
2023 09 20 23  00 53 37.203   -39 50 43.58  .12195 1.0987 138.6 19.8 .247 171
2023 09 21 00  00 53 44.285   -39 47 35.81  .12191 1.0987 138.6 19.8 .255 171
2023 09 21 01  00 53 51.357   -39 44 27.76  .12187 1.0987 138.7 19.8 .264 171
2023 09 21 02  00 53 58.418   -39 41 19.44  .12183 1.0987 138.7 19.8 .272 172
2023 09 21 03  00 54 05.469   -39 38 10.84  .12179 1.0987 138.8 19.8 .281 172
2023 09 21 04  00 54 12.509   -39 35 01.97  .12175 1.0987 138.8 19.8 .290 172
2023 09 21 05  00 54 19.538   -39 31 52.82  .12171 1.0987 138.8 19.8 .299 172
2023 09 21 06  00 54 26.557   -39 28 43.39  .12167 1.0987 138.9 19.8 .308 173
2023 09 21 07  00 54 33.565   -39 25 33.69  .12163 1.0987 138.9 19.8 .318 173
2023 09 21 08  00 54 40.563   -39 22 23.72  .12159 1.0987 138.9 19.8 .327 173
2023 09 21 09  00 54 47.550   -39 19 13.48  .12155 1.0987 139.0 19.8 .337 173
2023 09 21 10  00 54 54.526   -39 16 02.96  .12151 1.0987 139.0 19.8 .347 173
2023 09 21 11  00 55 01.492   -39 12 52.17  .12148 1.0987 139.0 19.8 .357 174
2023 09 21 12  00 55 08.447   -39 09 41.11  .12144 1.0987 139.1 19.8 .367 174
2023 09 21 13  00 55 15.392   -39 06 29.78  .12140 1.0987 139.1 19.8 .378 174
2023 09 21 14  00 55 22.326   -39 03 18.17  .12136 1.0988 139.1 19.8 .388 174
2023 09 21 15  00 55 29.249   -39 00 06.30  .12132 1.0988 139.2 19.8 .399 174
2023 09 21 16  00 55 36.162   -38 56 54.16  .12129 1.0988 139.2 19.8 .410 174
2023 09 21 17  00 55 43.065   -38 53 41.74  .12125 1.0988 139.2 19.8 .421 175
2023 09 21 18  00 55 49.957   -38 50 29.06  .12121 1.0988 139.3 19.8 .432 175
2023 09 21 19  00 55 56.838   -38 47 16.11  .12117 1.0988 139.3 19.8 .443 175
2023 09 21 20  00 56 03.708   -38 44 02.89  .12114 1.0988 139.4 19.8 .455 175
2023 09 21 21  00 56 10.569   -38 40 49.40  .12110 1.0988 139.4 19.8 .467 175
2023 09 21 22  00 56 17.418   -38 37 35.65  .12106 1.0988 139.4 19.8 .478 175
2023 09 21 23  00 56 24.257   -38 34 21.62  .12103 1.0988 139.5 19.8 .490 175
2023 09 22 00  00 56 31.086   -38 31 07.34  .12099 1.0988 139.5 19.8 .503 175
2023 09 22 01  00 56 37.904   -38 27 52.78  .12096 1.0988 139.5 19.8 .515 176
2023 09 22 02  00 56 44.711   -38 24 37.97  .12092 1.0988 139.6 19.8 .527 176
2023 09 22 03  00 56 51.508   -38 21 22.88  .12088 1.0988 139.6 19.8 .540 176
2023 09 22 04  00 56 58.294   -38 18 07.54  .12085 1.0988 139.7 19.8 .553 176
2023 09 22 05  00 57 05.070   -38 14 51.92  .12081 1.0988 139.7 19.8 .566 176
2023 09 22 06  00 57 11.835   -38 11 36.05  .12078 1.0988 139.7 19.8 .579 176
2023 09 22 07  00 57 18.590   -38 08 19.91  .12074 1.0988 139.8 19.8 .592 176
2023 09 22 08  00 57 25.334   -38 05 03.52  .12071 1.0988 139.8 19.8 .606 176
2023 09 22 09  00 57 32.067   -38 01 46.85  .12067 1.0988 139.8 19.8 .619 176